Regional Weather Roundup
Issued by NWS

Home | Current Version | Previous Version | Text Only | Print | Product List | Glossary On
Versions: 1 2 3 4 5 6 7 8 9 10 11 12 13 14 15 16 17 18 19 20 21 22 23 24 25 26 27 28 29 30 31 32 33 34 35 36 37 38 39 40 41 42 43 44 45 46 47 48 49 50
000
ASUS44 KMEG 191410
RWRTN
TENNESSEE HOURLY STATE WEATHER ROUNDUP
NATIONAL WEATHER SERVICE MEMPHIS TN
800 AM CST FRI DEC 19 2014

TNZ002-004-019-021-049-052-054-088>092-191500-
WEST TENNESSEE

CITY           SKY/WX    TMP DP  RH WIND       PRES   REMARKS
MEMPHIS INTL   CLOUDY    42  35  76 NE9       30.25R
NWS MEMPHIS      N/A     40 N/A N/A MISG        N/A
JACKSON        CLOUDY    38  31  76 NE8       30.26S WCI  32
DYERSBURG      CLOUDY    36  21  55 NE5       30.29R WCI  32
UNION CITY     CLOUDY    32  28  86 NE8       30.27S WCI  25
PARIS          CLOUDY    30  27  86 NE6       30.27S WCI  24
HUNTINGDON     CLOUDY    33  28  82 NE8       30.27S WCI  26
LEXINGTON      CLOUDY    36  30  80 NE5       30.25R WCI  32
SAVANNAH       CLOUDY    37  32  81 NE7       30.26R WCI  32
$$

TNZ008-025-027-028-033-062-065-066-191500-
NORTH MIDDLE TENNESSEE

CITY           SKY/WX    TMP DP  RH WIND       PRES   REMARKS
NASHVILLE      CLOUDY    35  28  75 NE6       30.28R WCI  30
CLARKSVILLE    CLOUDY    34  29  82 NE5       30.28R WCI  30
SMYRNA         CLOUDY    35  29  79 CALM      30.29R
COOKEVILLE     SUNNY     30  28  93 CALM      30.22S
CROSSVILLE     CLOUDY    31  27  85 NE5       30.20R FOG     WCI  26
$$

TNZ061-075-076-078-094-096-097-191500-
SOUTH MIDDLE TENNESSEE

CITY           SKY/WX    TMP DP  RH WIND       PRES   REMARKS
FAYETTEVILLE   CLOUDY    34  30  86 MISG      30.21F
TULLAHOMA      CLOUDY    34  30  86 N5        30.23S WCI  30
WINCHESTER     CLOUDY    34  32  93 CALM      30.22F
MCMINNVILLE    CLOUDY    30  30 100 CALM      30.24R
SHELBYVILLE    CLOUDY    34  34 100 N6        30.25S WCI  29
$$

TNZ017-018-042-046-047-191500-
NORTHEAST TENNESSEE

CITY           SKY/WX    TMP DP  RH WIND       PRES   REMARKS
TRI CITIES     CLOUDY    38  24  57 CALM      30.19S
ELIZABETHTON   CLOUDY    37  21  52 W3        30.18S
$$

TNZ012-013-036-069-073-074-191500-
CENTRAL EAST TENNESSEE

CITY           SKY/WX    TMP DP  RH WIND       PRES   REMARKS
KNOXVILLE      MOSUNNY   36  27  69 N8        30.20F WCI  30
OAK RIDGE      SUNNY     36  29  75 NE3       30.22S
GATLINBURG     SUNNY     34  30  86 CALM      30.19F
MORRISTOWN     SUNNY     37  25  60 CALM      30.20S
$$

TNZ083-085-099-191500-
SOUTHEAST TENNESSEE

CITY           SKY/WX    TMP DP  RH WIND       PRES   REMARKS
CHATTANOOGA    PTSUNNY   35  30  82 CALM      30.22S
$$

SKY/WX REPORTED AS FAIR MEANS FEW OR NO CLOUDS BELOW
12 THOUSAND FEET.



USA.gov is the U.S. government's official web portal to all federal, state and local government web resources and services.